DLH99E EDDF-LPPD

Flight info

Callsign DLH99E
Flight time 4h 33m
Altitude 35000
Route SOBRA2L/18 SOBRA Y180 DIK UN857 TOLVU DCT RAPOR DCT ESTOC DCT PON DCT DITAL DCT GODIX DCT DIDAK DCT KURIS DCT TERPO UN872 ERIGA UN741 AZFIC DCT LOTEE DCT PETEK/N0443F370 DCT ERPES/M077F360 DCT LENSI DCT OMOBI
Aircraft A320/M-SDE3FGHIRWY/LB1

Departure

Time 2026-05-07 14:20
Airport Frankfurt Main Airport (EDDF)

Arrival

Time 2026-05-07 18:54
Airport João Paulo II Airport (LPPD)
Time Latitude Longitude Altitude Speed Heading
2026-05-07 13:38 50.04704 8.56848 355 ft 0 kts 294°
2026-05-07 14:05 50.04698 8.56871 360 ft 3 kts 294°
2026-05-07 14:06 50.04690 8.56896 363 ft 3 kts 294°
2026-05-07 14:06 50.04687 8.56921 362 ft 3 kts 275°
2026-05-07 14:06 50.04688 8.56948 361 ft 2 kts 239°
2026-05-07 14:06 50.04692 8.56958 361 ft 1 kts 213°
2026-05-07 14:07 50.04695 8.56961 361 ft 0 kts 203°
2026-05-07 14:11 50.04691 8.56959 353 ft 3 kts 203°
2026-05-07 14:11 50.04649 8.56932 360 ft 9 kts 202°
2026-05-07 14:11 50.04585 8.56904 350 ft 10 kts 192°
2026-05-07 14:11 50.04510 8.56878 348 ft 12 kts 193°
2026-05-07 14:12 50.04447 8.56807 354 ft 11 kts 244°
2026-05-07 14:12 50.04418 8.56691 354 ft 12 kts 250°
2026-05-07 14:12 50.04386 8.56553 353 ft 15 kts 249°
2026-05-07 14:12 50.04347 8.56392 353 ft 16 kts 249°
2026-05-07 14:13 50.04307 8.56223 355 ft 19 kts 250°
2026-05-07 14:13 50.04267 8.56055 355 ft 19 kts 249°
2026-05-07 14:13 50.04249 8.55979 358 ft 19 kts 249°
2026-05-07 14:13 50.04202 8.55782 358 ft 20 kts 249°
2026-05-07 14:14 50.04155 8.55588 358 ft 19 kts 250°
2026-05-07 14:14 50.04105 8.55380 361 ft 21 kts 250°
2026-05-07 14:14 50.04056 8.55172 361 ft 20 kts 250°
2026-05-07 14:14 50.04006 8.54964 365 ft 20 kts 249°
2026-05-07 14:15 50.03954 8.54749 359 ft 22 kts 250°
2026-05-07 14:15 50.03900 8.54524 360 ft 22 kts 249°
2026-05-07 14:15 50.03834 8.54312 364 ft 21 kts 236°
2026-05-07 14:15 50.03774 8.54117 365 ft 20 kts 249°
2026-05-07 14:16 50.03725 8.53909 364 ft 21 kts 250°
2026-05-07 14:16 50.03673 8.53692 363 ft 22 kts 249°
2026-05-07 14:16 50.03617 8.53469 364 ft 22 kts 249°
2026-05-07 14:16 50.03565 8.53249 363 ft 21 kts 250°
2026-05-07 14:17 50.03512 8.53036 365 ft 21 kts 249°
2026-05-07 14:17 50.03466 8.52853 374 ft 15 kts 248°
2026-05-07 14:17 50.03431 8.52719 379 ft 12 kts 247°
2026-05-07 14:17 50.03384 8.52603 378 ft 14 kts 206°
2026-05-07 14:18 50.03278 8.52596 374 ft 14 kts 179°
2026-05-07 14:18 50.03271 8.52596 373 ft 0 kts 179°
2026-05-07 14:18 50.03270 8.52596 373 ft 0 kts 179°
2026-05-07 14:19 50.03238 8.52596 372 ft 21 kts 179°
2026-05-07 14:19 50.02826 8.52600 366 ft 93 kts 180°
2026-05-07 14:19 50.01985 8.52608 353 ft 147 kts 179°
2026-05-07 14:20 50.00832 8.52606 564 ft 172 kts 182°
2026-05-07 14:20 49.99638 8.52632 1262 ft 173 kts 179°
2026-05-07 14:20 49.98407 8.52739 1768 ft 184 kts 176°
2026-05-07 14:20 49.97102 8.52858 2207 ft 193 kts 178°
2026-05-07 14:21 49.95722 8.52957 2618 ft 204 kts 178°
2026-05-07 14:21 49.94267 8.53053 2989 ft 219 kts 179°
2026-05-07 14:21 49.92711 8.53151 3272 ft 232 kts 179°
2026-05-07 14:21 49.91085 8.53253 3542 ft 234 kts 179°
2026-05-07 14:22 49.89451 8.53358 3983 ft 236 kts 179°
2026-05-07 14:22 49.87806 8.53430 4414 ft 237 kts 186°
2026-05-07 14:22 49.86193 8.52858 4868 ft 244 kts 202°
2026-05-07 14:22 49.84545 8.51922 5323 ft 260 kts 202°
2026-05-07 14:23 49.82809 8.50935 5786 ft 270 kts 202°
2026-05-07 14:23 49.81057 8.49942 6245 ft 272 kts 202°
2026-05-07 14:23 49.79273 8.48932 6673 ft 274 kts 202°
2026-05-07 14:23 49.77617 8.47516 7120 ft 273 kts 223°
2026-05-07 14:24 49.76456 8.45233 7572 ft 271 kts 246°
2026-05-07 14:24 49.75978 8.42434 8033 ft 271 kts 269°
2026-05-07 14:24 49.76233 8.39566 8518 ft 271 kts 285°
2026-05-07 14:24 49.76708 8.36721 9046 ft 274 kts 284°
2026-05-07 14:25 49.77175 8.33844 9581 ft 277 kts 284°
2026-05-07 14:25 49.77643 8.30939 10103 ft 280 kts 284°
2026-05-07 14:25 49.78121 8.27955 10596 ft 290 kts 284°
2026-05-07 14:25 49.78612 8.24872 11095 ft 300 kts 284°
2026-05-07 14:26 49.79119 8.21689 11601 ft 309 kts 284°
2026-05-07 14:26 49.79642 8.18414 12114 ft 318 kts 284°
2026-05-07 14:26 49.80180 8.15051 12634 ft 326 kts 284°
2026-05-07 14:26 49.80729 8.11607 13168 ft 333 kts 284°
2026-05-07 14:27 49.81287 8.08091 13703 ft 339 kts 284°
2026-05-07 14:27 49.81851 8.04514 14200 ft 345 kts 284°
2026-05-07 14:27 49.82423 8.00882 14688 ft 349 kts 284°
2026-05-07 14:27 49.83003 7.97212 15183 ft 352 kts 284°
2026-05-07 14:28 49.83590 7.93519 15685 ft 354 kts 284°
2026-05-07 14:28 49.84172 7.89853 16184 ft 357 kts 283°
2026-05-07 14:28 49.84763 7.86105 16717 ft 359 kts 283°
2026-05-07 14:28 49.85354 7.82326 17246 ft 361 kts 283°
2026-05-07 14:29 49.85944 7.78527 17795 ft 364 kts 283°
2026-05-07 14:29 49.86538 7.74701 18323 ft 366 kts 283°
2026-05-07 14:29 49.87141 7.70847 18805 ft 369 kts 283°
2026-05-07 14:29 49.87747 7.66968 19287 ft 371 kts 283°
2026-05-07 14:30 49.88350 7.63069 19738 ft 373 kts 283°
2026-05-07 14:30 49.88957 7.59137 20192 ft 376 kts 283°
2026-05-07 14:30 49.89564 7.55184 20648 ft 378 kts 283°
2026-05-07 14:30 49.90175 7.51207 21073 ft 381 kts 283°
2026-05-07 14:31 49.90792 7.47197 21494 ft 383 kts 283°
2026-05-07 14:31 49.91411 7.43160 21896 ft 387 kts 283°
2026-05-07 14:31 49.92031 7.39086 22269 ft 389 kts 283°
2026-05-07 14:31 49.92644 7.35051 22652 ft 391 kts 283°
2026-05-07 14:32 49.93270 7.30931 23033 ft 393 kts 283°
2026-05-07 14:32 49.93903 7.26782 23425 ft 396 kts 283°
2026-05-07 14:32 49.94542 7.22561 23790 ft 398 kts 283°
2026-05-07 14:32 49.95164 7.18424 24117 ft 399 kts 283°
2026-05-07 14:33 49.95794 7.14216 24450 ft 401 kts 283°
2026-05-07 14:33 49.96425 7.09991 24788 ft 402 kts 283°
2026-05-07 14:33 49.97058 7.05747 25127 ft 404 kts 283°
2026-05-07 14:33 49.97695 7.01481 25475 ft 406 kts 283°
2026-05-07 14:34 49.98329 6.97200 25818 ft 408 kts 283°
2026-05-07 14:34 49.98949 6.92896 26179 ft 408 kts 280°
2026-05-07 14:34 49.99241 6.88501 26540 ft 409 kts 271°
2026-05-07 14:34 49.99145 6.84072 26895 ft 410 kts 267°
2026-05-07 14:35 49.99012 6.79645 27242 ft 411 kts 267°
2026-05-07 14:35 49.98881 6.75199 27535 ft 413 kts 267°
2026-05-07 14:35 49.98747 6.70725 27832 ft 415 kts 267°
2026-05-07 14:35 49.98609 6.66230 28082 ft 418 kts 267°
2026-05-07 14:36 49.98469 6.61712 28306 ft 420 kts 267°
2026-05-07 14:36 49.98129 6.57190 28586 ft 423 kts 258°
2026-05-07 14:36 49.97322 6.52788 28853 ft 425 kts 250°
2026-05-07 14:36 49.96158 6.48553 29143 ft 427 kts 247°
2026-05-07 14:37 49.94968 6.44325 29435 ft 428 kts 247°
2026-05-07 14:37 49.92592 6.35819 29950 ft 431 kts 247°
2026-05-07 14:37 49.91397 6.31552 30195 ft 432 kts 247°
2026-05-07 14:38 49.90192 6.27276 30419 ft 433 kts 247°
2026-05-07 14:38 49.88952 6.23018 30646 ft 434 kts 246°
2026-05-07 14:38 49.87714 6.18741 30879 ft 434 kts 247°
2026-05-07 14:38 49.86498 6.14535 31128 ft 434 kts 244°
2026-05-07 14:39 49.84975 6.10497 31378 ft 434 kts 236°
2026-05-07 14:39 49.83241 6.06668 31634 ft 434 kts 236°
2026-05-07 14:39 49.81501 6.02856 31910 ft 433 kts 236°
2026-05-07 14:39 49.79757 5.99055 32147 ft 433 kts 236°
2026-05-07 14:40 49.78005 5.95263 32414 ft 432 kts 236°
2026-05-07 14:40 49.76255 5.91489 32684 ft 432 kts 236°
2026-05-07 14:40 49.74603 5.87624 32949 ft 430 kts 242°
2026-05-07 14:40 49.73353 5.83454 33220 ft 426 kts 251°
2026-05-07 14:41 49.72362 5.79141 33495 ft 425 kts 251°
2026-05-07 14:41 49.71372 5.74853 33778 ft 423 kts 251°
2026-05-07 14:41 49.70379 5.70584 34100 ft 422 kts 251°
2026-05-07 14:41 49.69380 5.66323 34339 ft 421 kts 251°
2026-05-07 14:42 49.68386 5.62084 34574 ft 420 kts 251°
2026-05-07 14:42 49.67394 5.57845 34815 ft 418 kts 251°
2026-05-07 14:42 49.66404 5.53620 35005 ft 419 kts 250°
2026-05-07 14:42 49.65410 5.49388 35063 ft 421 kts 250°
2026-05-07 14:43 49.63401 5.40864 35062 ft 423 kts 250°
2026-05-07 14:43 49.61434 5.32332 35065 ft 422 kts 252°
2026-05-07 14:44 49.59606 5.23744 35065 ft 421 kts 252°
2026-05-07 14:44 49.58199 5.15050 35065 ft 421 kts 257°
2026-05-07 14:45 49.56893 5.06251 35061 ft 421 kts 257°
2026-05-07 14:45 49.55629 4.97993 35069 ft 421 kts 257°
2026-05-07 14:46 49.54505 4.90704 35068 ft 421 kts 257°
2026-05-07 14:46 49.53157 4.81948 35067 ft 420 kts 257°
2026-05-07 14:47 49.51805 4.73197 35067 ft 420 kts 257°
2026-05-07 14:47 49.50447 4.64447 35070 ft 420 kts 256°
2026-05-07 14:48 49.49086 4.55711 35068 ft 420 kts 256°
2026-05-07 14:48 49.47714 4.46982 35072 ft 420 kts 256°
2026-05-07 14:49 49.46334 4.38262 35070 ft 419 kts 256°
2026-05-07 14:49 49.44954 4.29559 35073 ft 419 kts 256°
2026-05-07 14:50 49.43574 4.20861 35073 ft 419 kts 256°
2026-05-07 14:50 49.42179 4.12162 35070 ft 419 kts 256°
2026-05-07 14:51 49.40772 4.03484 35073 ft 419 kts 256°
2026-05-07 14:51 49.39374 3.94859 35073 ft 419 kts 256°
2026-05-07 14:52 49.37965 3.86184 35071 ft 419 kts 256°
2026-05-07 14:52 49.36551 3.77513 35073 ft 419 kts 256°
2026-05-07 14:53 49.35117 3.68815 35073 ft 419 kts 256°
2026-05-07 14:53 49.33677 3.60137 35073 ft 419 kts 256°
2026-05-07 14:54 49.32252 3.51516 35076 ft 419 kts 256°
2026-05-07 14:54 49.30816 3.42883 35076 ft 419 kts 255°
2026-05-07 14:55 49.29357 3.34220 35070 ft 419 kts 255°
2026-05-07 14:55 49.27896 3.25585 35071 ft 419 kts 255°
2026-05-07 14:56 49.26441 3.16975 35068 ft 419 kts 255°
2026-05-07 14:56 49.24971 3.08348 35068 ft 419 kts 255°
2026-05-07 14:57 49.23489 2.99718 35062 ft 419 kts 255°
2026-05-07 14:57 49.22004 2.91106 35062 ft 419 kts 255°
2026-05-07 14:58 49.20516 2.82504 35056 ft 419 kts 255°
2026-05-07 14:58 49.19022 2.73894 35057 ft 419 kts 255°
2026-05-07 14:59 49.17521 2.65295 35059 ft 418 kts 255°
2026-05-07 14:59 49.16008 2.56685 35056 ft 419 kts 255°
2026-05-07 15:00 49.14495 2.48097 35057 ft 419 kts 255°
2026-05-07 15:00 49.13004 2.39508 35055 ft 419 kts 258°
2026-05-07 15:01 49.12161 2.30746 35056 ft 419 kts 261°
2026-05-07 15:01 49.11342 2.21928 35057 ft 419 kts 261°
2026-05-07 15:02 49.10512 2.13123 35056 ft 419 kts 261°
2026-05-07 15:02 49.09556 2.04344 35056 ft 419 kts 254°
2026-05-07 15:03 49.07378 1.96119 35056 ft 419 kts 245°
2026-05-07 15:03 49.04971 1.88127 35057 ft 419 kts 245°
2026-05-07 15:04 49.02527 1.80058 35054 ft 419 kts 245°
2026-05-07 15:04 49.00086 1.71988 35052 ft 419 kts 245°
2026-05-07 15:05 48.97636 1.63910 35053 ft 420 kts 245°
2026-05-07 15:05 48.95197 1.55898 35053 ft 420 kts 245°
2026-05-07 15:06 48.92737 1.47841 35054 ft 420 kts 245°
2026-05-07 15:06 48.90272 1.39798 35053 ft 420 kts 245°
2026-05-07 15:07 48.87796 1.31761 35053 ft 420 kts 245°
2026-05-07 15:07 48.85470 1.24202 35052 ft 420 kts 245°
2026-05-07 15:08 48.82980 1.16178 35049 ft 420 kts 244°
2026-05-07 15:08 48.80488 1.08163 35047 ft 420 kts 244°
2026-05-07 15:09 48.77996 1.00157 35045 ft 420 kts 244°
2026-05-07 15:09 48.75491 0.92161 35037 ft 420 kts 244°
2026-05-07 15:10 48.72666 0.84427 35035 ft 420 kts 238°
2026-05-07 15:10 48.69612 0.76892 35031 ft 420 kts 238°
2026-05-07 15:11 48.66555 0.69366 35030 ft 420 kts 238°
2026-05-07 15:11 48.63507 0.61884 35028 ft 420 kts 238°
2026-05-07 15:12 48.60616 0.54793 35030 ft 420 kts 238°
2026-05-07 15:12 48.57736 0.47729 35023 ft 420 kts 238°
2026-05-07 15:13 48.54667 0.40235 35025 ft 420 kts 238°
2026-05-07 15:13 48.51608 0.32787 35024 ft 420 kts 238°
2026-05-07 15:14 48.48525 0.25297 35024 ft 420 kts 238°
2026-05-07 15:14 48.45433 0.17821 35021 ft 420 kts 238°
2026-05-07 15:15 48.42333 0.10353 35026 ft 420 kts 238°
2026-05-07 15:15 48.39236 0.02905 35024 ft 420 kts 238°
2026-05-07 15:16 48.36122 -0.04529 35023 ft 420 kts 236°
2026-05-07 15:16 48.32747 -0.11717 35023 ft 420 kts 233°
2026-05-07 15:17 48.29173 -0.18692 35018 ft 420 kts 232°
2026-05-07 15:17 48.25623 -0.25644 35021 ft 420 kts 232°
2026-05-07 15:18 48.22085 -0.32623 35007 ft 420 kts 232°
2026-05-07 15:18 48.18560 -0.39541 35010 ft 419 kts 232°
2026-05-07 15:19 48.15008 -0.46472 35008 ft 419 kts 232°
2026-05-07 15:19 48.11470 -0.53354 35005 ft 419 kts 232°
2026-05-07 15:20 48.07908 -0.60276 35002 ft 419 kts 232°
2026-05-07 15:20 48.04354 -0.67167 35002 ft 419 kts 232°
2026-05-07 15:21 48.00778 -0.74068 34998 ft 419 kts 232°
2026-05-07 15:21 47.97230 -0.80903 35002 ft 418 kts 232°
2026-05-07 15:22 47.93677 -0.87743 35003 ft 417 kts 232°
2026-05-07 15:22 47.90119 -0.94582 35005 ft 417 kts 232°
2026-05-07 15:23 47.86575 -1.01363 35000 ft 417 kts 232°
2026-05-07 15:23 47.82995 -1.08193 35000 ft 417 kts 232°
2026-05-07 15:24 47.79440 -1.14966 34990 ft 417 kts 231°
2026-05-07 15:24 47.75875 -1.21747 35000 ft 416 kts 231°
2026-05-07 15:25 47.72315 -1.28500 34999 ft 416 kts 231°
2026-05-07 15:25 47.68728 -1.35278 34992 ft 417 kts 231°
2026-05-07 15:26 47.65140 -1.42045 34991 ft 417 kts 231°
2026-05-07 15:26 47.61545 -1.48792 34988 ft 417 kts 231°
2026-05-07 15:27 47.57876 -1.55458 34982 ft 417 kts 229°
2026-05-07 15:27 47.54230 -1.61455 34991 ft 416 kts 227°
2026-05-07 15:28 47.50297 -1.67740 34998 ft 416 kts 227°
2026-05-07 15:28 47.46384 -1.74071 34986 ft 417 kts 227°
2026-05-07 15:29 47.42529 -1.80384 34985 ft 417 kts 227°
2026-05-07 15:29 47.38644 -1.86752 34985 ft 417 kts 227°
2026-05-07 15:30 47.34612 -1.92871 34999 ft 415 kts 218°
2026-05-07 15:30 47.29766 -1.97474 35000 ft 415 kts 211°
2026-05-07 15:31 47.24827 -2.01895 35002 ft 415 kts 212°
2026-05-07 15:31 47.19888 -2.06306 35012 ft 415 kts 211°
2026-05-07 15:32 47.14940 -2.10717 34996 ft 416 kts 211°
2026-05-07 15:32 47.09998 -2.15116 34990 ft 415 kts 211°
2026-05-07 15:33 47.05892 -2.18766 34994 ft 415 kts 211°
2026-05-07 15:33 47.00945 -2.23134 34994 ft 415 kts 211°
2026-05-07 15:34 46.95195 -2.28192 34997 ft 415 kts 211°
2026-05-07 15:34 46.91060 -2.31839 34994 ft 414 kts 211°
2026-05-07 15:35 46.86436 -2.36809 34991 ft 413 kts 225°
2026-05-07 15:35 46.83103 -2.43635 34993 ft 415 kts 239°
2026-05-07 15:36 46.80244 -2.50925 34994 ft 417 kts 238°
2026-05-07 15:36 46.77345 -2.58268 34994 ft 417 kts 238°
2026-05-07 15:37 46.74441 -2.65605 34994 ft 418 kts 238°
2026-05-07 15:37 46.71524 -2.72932 34994 ft 418 kts 238°
2026-05-07 15:38 46.68607 -2.80247 34994 ft 418 kts 238°
2026-05-07 15:38 46.65679 -2.87567 34993 ft 419 kts 238°
2026-05-07 15:39 46.62734 -2.94894 34990 ft 420 kts 238°
2026-05-07 15:39 46.59793 -3.02225 34991 ft 420 kts 238°
2026-05-07 15:40 46.56735 -3.09439 34991 ft 418 kts 231°
2026-05-07 15:40 46.52799 -3.15613 34991 ft 418 kts 225°
2026-05-07 15:41 46.48784 -3.21658 34996 ft 417 kts 225°
2026-05-07 15:41 46.44750 -3.27736 34994 ft 419 kts 225°
2026-05-07 15:42 46.40703 -3.33815 34991 ft 419 kts 225°
2026-05-07 15:42 46.36646 -3.39892 34991 ft 419 kts 225°
2026-05-07 15:43 46.32588 -3.45947 34989 ft 419 kts 225°
2026-05-07 15:43 46.28524 -3.51992 34987 ft 419 kts 225°
2026-05-07 15:44 46.24460 -3.58028 34986 ft 419 kts 225°
2026-05-07 15:44 46.20388 -3.64058 34985 ft 420 kts 225°
2026-05-07 15:45 46.16305 -3.70103 34985 ft 421 kts 225°
2026-05-07 15:45 46.12474 -3.75763 34985 ft 421 kts 225°
2026-05-07 15:46 46.06369 -3.84766 34980 ft 420 kts 225°
2026-05-07 15:47 46.02279 -3.90779 34975 ft 420 kts 225°
2026-05-07 15:47 45.98183 -3.96777 34981 ft 420 kts 226°
2026-05-07 15:48 45.94073 -4.02783 34980 ft 422 kts 226°
2026-05-07 15:48 45.89954 -4.08794 34977 ft 422 kts 226°
2026-05-07 15:49 45.85826 -4.14795 34977 ft 422 kts 226°
2026-05-07 15:49 45.81694 -4.20789 34977 ft 423 kts 226°
2026-05-07 15:50 45.77556 -4.26778 34976 ft 422 kts 226°
2026-05-07 15:50 45.73449 -4.32715 34975 ft 423 kts 226°
2026-05-07 15:51 45.69308 -4.38690 34977 ft 423 kts 226°
2026-05-07 15:51 45.65164 -4.44658 34975 ft 423 kts 226°
2026-05-07 15:52 45.61012 -4.50612 34972 ft 422 kts 226°
2026-05-07 15:52 45.56869 -4.56560 34967 ft 422 kts 226°
2026-05-07 15:53 45.52715 -4.62489 34967 ft 422 kts 225°
2026-05-07 15:53 45.48556 -4.68408 34963 ft 423 kts 226°
2026-05-07 15:54 45.44376 -4.74364 34964 ft 426 kts 226°
2026-05-07 15:54 45.40185 -4.80319 34961 ft 426 kts 226°
2026-05-07 15:55 45.35986 -4.86267 34965 ft 426 kts 226°
2026-05-07 15:55 45.31783 -4.92199 34962 ft 426 kts 226°
2026-05-07 15:56 45.27579 -4.98126 34945 ft 426 kts 226°
2026-05-07 15:56 45.23371 -5.04057 34953 ft 428 kts 227°
2026-05-07 15:57 45.19129 -5.10019 34952 ft 430 kts 227°
2026-05-07 15:57 45.14907 -5.15945 34953 ft 430 kts 227°
2026-05-07 15:58 45.10648 -5.21897 34948 ft 430 kts 226°
2026-05-07 15:58 45.06359 -5.27864 34942 ft 430 kts 226°
2026-05-07 15:59 45.02116 -5.33780 34945 ft 430 kts 226°
2026-05-07 15:59 44.97831 -5.39728 34945 ft 431 kts 227°
2026-05-07 16:00 44.93549 -5.45661 34938 ft 432 kts 227°
2026-05-07 16:00 44.89255 -5.51590 34942 ft 432 kts 227°
2026-05-07 16:01 44.84961 -5.57508 34927 ft 432 kts 227°
2026-05-07 16:01 44.80665 -5.63417 34934 ft 432 kts 227°
2026-05-07 16:02 44.76391 -5.69275 34934 ft 432 kts 227°
2026-05-07 16:02 44.72094 -5.75167 34934 ft 431 kts 227°
2026-05-07 16:03 44.67831 -5.81086 34930 ft 429 kts 231°
2026-05-07 16:03 44.64646 -5.88052 34932 ft 423 kts 249°
2026-05-07 16:04 44.62469 -5.95710 34926 ft 422 kts 250°
2026-05-07 16:04 44.60273 -6.03360 34926 ft 423 kts 250°
2026-05-07 16:05 44.58066 -6.10999 34925 ft 422 kts 250°
2026-05-07 16:05 44.55873 -6.18607 34925 ft 420 kts 250°
2026-05-07 16:06 44.53679 -6.26205 34926 ft 420 kts 250°
2026-05-07 16:06 44.51493 -6.33741 34920 ft 420 kts 250°
2026-05-07 16:07 44.49289 -6.41325 34921 ft 420 kts 250°
2026-05-07 16:07 44.47086 -6.48900 34917 ft 420 kts 250°
2026-05-07 16:08 44.44876 -6.56449 34920 ft 419 kts 250°
2026-05-07 16:08 44.42663 -6.63996 34921 ft 419 kts 250°
2026-05-07 16:09 44.40445 -6.71536 34912 ft 419 kts 250°
2026-05-07 16:09 44.38217 -6.79072 34924 ft 419 kts 250°
2026-05-07 16:10 44.35986 -6.86599 34923 ft 418 kts 250°
2026-05-07 16:10 44.33770 -6.94095 34914 ft 417 kts 250°
2026-05-07 16:11 44.31545 -7.01575 34913 ft 417 kts 250°
2026-05-07 16:11 44.29325 -7.09002 34917 ft 417 kts 250°
2026-05-07 16:12 44.27086 -7.16467 34913 ft 417 kts 250°
2026-05-07 16:12 44.24847 -7.23929 34906 ft 416 kts 250°
2026-05-07 16:13 44.22606 -7.31359 34914 ft 415 kts 250°
2026-05-07 16:13 44.20363 -7.38776 34913 ft 415 kts 250°
2026-05-07 16:14 44.18122 -7.46190 34903 ft 415 kts 250°
2026-05-07 16:14 44.15997 -7.53197 34906 ft 414 kts 250°
2026-05-07 16:15 44.13747 -7.60585 34898 ft 414 kts 250°
2026-05-07 16:15 44.11511 -7.67888 34906 ft 412 kts 250°
2026-05-07 16:16 44.09267 -7.75213 34903 ft 411 kts 250°
2026-05-07 16:16 44.07019 -7.82533 34903 ft 411 kts 250°
2026-05-07 16:17 44.04763 -7.89843 34902 ft 411 kts 250°
2026-05-07 16:17 44.02504 -7.97149 34900 ft 411 kts 250°
2026-05-07 16:18 44.00236 -8.04450 34900 ft 412 kts 250°
2026-05-07 16:18 43.97965 -8.11745 34900 ft 411 kts 250°
2026-05-07 16:19 43.95697 -8.19037 34903 ft 411 kts 250°
2026-05-07 16:19 43.93421 -8.26331 34900 ft 412 kts 250°
2026-05-07 16:20 43.91135 -8.33609 34898 ft 411 kts 250°
2026-05-07 16:20 43.88852 -8.40864 34901 ft 410 kts 250°
2026-05-07 16:21 43.86570 -8.48102 34901 ft 409 kts 250°
2026-05-07 16:21 43.84289 -8.55330 34904 ft 409 kts 250°
2026-05-07 16:22 43.81998 -8.62557 34904 ft 410 kts 250°
2026-05-07 16:22 43.79721 -8.69725 34907 ft 410 kts 250°
2026-05-07 16:23 43.77419 -8.76959 34909 ft 409 kts 249°
2026-05-07 16:23 43.75510 -8.82936 34907 ft 408 kts 249°
2026-05-07 16:24 43.73214 -8.90119 34909 ft 408 kts 249°
2026-05-07 16:24 43.70910 -8.97299 34909 ft 408 kts 249°
2026-05-07 16:25 43.68222 -9.05638 34907 ft 409 kts 249°
2026-05-07 16:25 43.66286 -9.11642 34890 ft 408 kts 249°
2026-05-07 16:26 43.63971 -9.18777 34909 ft 406 kts 249°
2026-05-07 16:26 43.61657 -9.25889 34909 ft 406 kts 249°
2026-05-07 16:27 43.59346 -9.32999 34993 ft 406 kts 249°
2026-05-07 16:27 43.58190 -9.36550 35117 ft 406 kts 249°
2026-05-07 16:27 43.57030 -9.40102 35247 ft 406 kts 248°
2026-05-07 16:27 43.55867 -9.43651 35371 ft 406 kts 248°
2026-05-07 16:28 43.54719 -9.47151 35482 ft 405 kts 248°
2026-05-07 16:28 43.53559 -9.50687 35608 ft 404 kts 248°
2026-05-07 16:28 43.52404 -9.54212 35735 ft 403 kts 248°
2026-05-07 16:28 43.51250 -9.57732 35864 ft 403 kts 248°
2026-05-07 16:29 43.50096 -9.61244 35986 ft 403 kts 248°
2026-05-07 16:29 43.48937 -9.64756 36118 ft 403 kts 248°
2026-05-07 16:29 43.47777 -9.68264 36248 ft 402 kts 248°
2026-05-07 16:29 43.46617 -9.71768 36380 ft 402 kts 247°
2026-05-07 16:30 43.45455 -9.75275 36510 ft 402 kts 247°
2026-05-07 16:30 43.44295 -9.78779 36642 ft 402 kts 247°
2026-05-07 16:30 43.43134 -9.82275 36796 ft 401 kts 247°
2026-05-07 16:30 43.41974 -9.85769 36901 ft 401 kts 246°
2026-05-07 16:31 43.40816 -9.89255 36921 ft 400 kts 246°
2026-05-07 16:31 43.38500 -9.96212 36915 ft 400 kts 246°
2026-05-07 16:32 43.36177 -10.03154 36918 ft 400 kts 246°
2026-05-07 16:32 43.33851 -10.10090 36917 ft 400 kts 246°
2026-05-07 16:33 43.31520 -10.17023 36923 ft 400 kts 246°
2026-05-07 16:33 43.29207 -10.23909 36914 ft 400 kts 246°
2026-05-07 16:34 43.26871 -10.30856 36908 ft 401 kts 246°
2026-05-07 16:34 43.24529 -10.37795 36909 ft 401 kts 246°
2026-05-07 16:35 43.22172 -10.44745 36917 ft 402 kts 246°
2026-05-07 16:35 43.19807 -10.51684 36920 ft 402 kts 246°
2026-05-07 16:36 43.17439 -10.58624 36919 ft 402 kts 245°
2026-05-07 16:36 43.15068 -10.65567 36916 ft 403 kts 245°
2026-05-07 16:37 43.12684 -10.72513 36912 ft 403 kts 245°
2026-05-07 16:37 43.10284 -10.79460 36914 ft 403 kts 245°
2026-05-07 16:38 43.07887 -10.86406 36921 ft 404 kts 245°
2026-05-07 16:38 43.05490 -10.93352 36925 ft 404 kts 245°
2026-05-07 16:39 43.03098 -11.00300 36929 ft 404 kts 245°
2026-05-07 16:39 43.00711 -11.07195 36930 ft 404 kts 244°
2026-05-07 16:40 42.98292 -11.14131 36933 ft 404 kts 244°
2026-05-07 16:40 42.95877 -11.21058 36935 ft 404 kts 244°
2026-05-07 16:41 42.93444 -11.27986 36941 ft 404 kts 244°
2026-05-07 16:41 42.91016 -11.34904 36947 ft 404 kts 244°
2026-05-07 16:42 42.88149 -11.41433 36943 ft 403 kts 226°
2026-05-07 16:42 42.84147 -11.46793 36934 ft 403 kts 225°
2026-05-07 16:43 42.80126 -11.52115 36936 ft 403 kts 225°
2026-05-07 16:43 42.76100 -11.57421 36939 ft 402 kts 225°
2026-05-07 16:44 42.72101 -11.62683 36935 ft 402 kts 225°
2026-05-07 16:44 42.68084 -11.67979 36943 ft 402 kts 225°
2026-05-07 16:45 42.64065 -11.73271 36938 ft 400 kts 225°
2026-05-07 16:45 42.60141 -11.78413 36941 ft 387 kts 225°
2026-05-07 16:46 42.56252 -11.83497 36941 ft 389 kts 225°
2026-05-07 16:46 42.52355 -11.88584 36934 ft 389 kts 225°
2026-05-07 16:47 42.48450 -11.93672 36940 ft 389 kts 225°
2026-05-07 16:47 42.44544 -11.98755 36940 ft 389 kts 225°
2026-05-07 16:48 42.40643 -12.03836 36932 ft 389 kts 225°
2026-05-07 16:48 42.36976 -12.08601 36930 ft 389 kts 224°
2026-05-07 16:49 42.33068 -12.13648 36950 ft 388 kts 224°
2026-05-07 16:49 42.29195 -12.18650 36951 ft 387 kts 224°
2026-05-07 16:50 42.25306 -12.23668 36949 ft 386 kts 224°
2026-05-07 16:50 42.21414 -12.28675 36941 ft 386 kts 224°
2026-05-07 16:51 42.17756 -12.33373 36943 ft 386 kts 224°
2026-05-07 16:51 42.13865 -12.38366 36947 ft 386 kts 224°
2026-05-07 16:52 42.09977 -12.43356 36951 ft 386 kts 224°
2026-05-07 16:52 42.06088 -12.48334 36943 ft 386 kts 224°
2026-05-07 16:53 42.02423 -12.53011 36944 ft 386 kts 224°
2026-05-07 16:53 41.98521 -12.57976 36943 ft 386 kts 224°
2026-05-07 16:54 41.94650 -12.62899 36930 ft 386 kts 224°
2026-05-07 16:54 41.90746 -12.67848 36930 ft 386 kts 223°
2026-05-07 16:55 41.86852 -12.72791 36940 ft 385 kts 224°
2026-05-07 16:55 41.82965 -12.77710 36956 ft 384 kts 223°
2026-05-07 16:56 41.79075 -12.82621 36939 ft 384 kts 223°
2026-05-07 16:56 41.73232 -12.89983 36920 ft 385 kts 223°
2026-05-07 16:57 41.69335 -12.94889 36920 ft 385 kts 223°
2026-05-07 16:57 41.65434 -12.99790 36910 ft 385 kts 222°
2026-05-07 16:58 41.61530 -13.04680 36923 ft 385 kts 222°
2026-05-07 16:58 41.57625 -13.09566 36922 ft 384 kts 222°
2026-05-07 16:59 41.53743 -13.14410 36944 ft 385 kts 222°
2026-05-07 16:59 41.49823 -13.19289 36916 ft 386 kts 222°
2026-05-07 17:00 41.45897 -13.24185 36913 ft 387 kts 222°
2026-05-07 17:00 41.41960 -13.29082 36906 ft 387 kts 221°
2026-05-07 17:01 41.38007 -13.33976 36911 ft 388 kts 221°
2026-05-07 17:01 41.34052 -13.38866 36916 ft 388 kts 221°
2026-05-07 17:02 41.30096 -13.43756 36917 ft 388 kts 221°
2026-05-07 17:02 41.26168 -13.48617 36920 ft 388 kts 221°
2026-05-07 17:03 41.22194 -13.53510 36921 ft 389 kts 221°
2026-05-07 17:03 41.18215 -13.58400 36914 ft 390 kts 221°
2026-05-07 17:04 41.14210 -13.63311 36918 ft 390 kts 221°
2026-05-07 17:04 41.10245 -13.68171 36926 ft 390 kts 221°
2026-05-07 17:05 41.06256 -13.73038 36929 ft 390 kts 221°
2026-05-07 17:05 41.02273 -13.77906 36928 ft 390 kts 221°
2026-05-07 17:06 40.98290 -13.82771 36932 ft 389 kts 221°
2026-05-07 17:06 40.94303 -13.87632 36941 ft 390 kts 221°
2026-05-07 17:07 40.90304 -13.92482 36926 ft 390 kts 220°
2026-05-07 17:07 40.86295 -13.97330 36841 ft 391 kts 220°
2026-05-07 17:08 40.84291 -13.99755 36711 ft 391 kts 220°
2026-05-07 17:08 40.82289 -14.02182 36577 ft 390 kts 220°
2026-05-07 17:08 40.80291 -14.04603 36445 ft 390 kts 220°
2026-05-07 17:08 40.78291 -14.07027 36316 ft 390 kts 220°
2026-05-07 17:09 40.76294 -14.09445 36190 ft 390 kts 220°
2026-05-07 17:09 40.74297 -14.11853 36047 ft 387 kts 220°
2026-05-07 17:09 40.72329 -14.14225 35892 ft 380 kts 220°
2026-05-07 17:09 40.70383 -14.16563 35919 ft 378 kts 220°
2026-05-07 17:10 40.66493 -14.21233 35920 ft 377 kts 220°
2026-05-07 17:10 40.62607 -14.25891 35919 ft 378 kts 219°
2026-05-07 17:11 40.58748 -14.30513 35919 ft 378 kts 219°
2026-05-07 17:11 40.54833 -14.35191 35919 ft 378 kts 219°
2026-05-07 17:12 40.50971 -14.39806 35916 ft 378 kts 219°
2026-05-07 17:12 40.47082 -14.44460 35917 ft 378 kts 219°
2026-05-07 17:13 40.43853 -14.48317 35926 ft 378 kts 219°
2026-05-07 17:13 40.39952 -14.52946 35920 ft 378 kts 219°
2026-05-07 17:14 40.36052 -14.57575 35945 ft 378 kts 220°
2026-05-07 17:14 40.32146 -14.62207 35921 ft 379 kts 220°
2026-05-07 17:15 40.28231 -14.66835 35923 ft 379 kts 220°
2026-05-07 17:15 40.24312 -14.71458 35912 ft 379 kts 220°
2026-05-07 17:16 40.20395 -14.76079 35914 ft 379 kts 220°
2026-05-07 17:16 40.16477 -14.80700 35915 ft 379 kts 220°
2026-05-07 17:17 40.12579 -14.85280 35916 ft 379 kts 220°
2026-05-07 17:17 40.08640 -14.89883 35916 ft 379 kts 220°
2026-05-07 17:18 40.04703 -14.94492 35922 ft 380 kts 219°
2026-05-07 17:18 40.01170 -14.99678 35913 ft 387 kts 234°
2026-05-07 17:19 39.98944 -15.06108 35909 ft 396 kts 250°
2026-05-07 17:19 39.97693 -15.13121 35909 ft 398 kts 252°
2026-05-07 17:20 39.96446 -15.20183 35912 ft 398 kts 252°
2026-05-07 17:20 39.95200 -15.27193 35906 ft 398 kts 252°
2026-05-07 17:21 39.93934 -15.34240 35907 ft 398 kts 252°
2026-05-07 17:21 39.92675 -15.41233 35906 ft 398 kts 252°
2026-05-07 17:22 39.91411 -15.48256 35904 ft 398 kts 252°
2026-05-07 17:22 39.90138 -15.55264 35904 ft 398 kts 252°
2026-05-07 17:23 39.88874 -15.62247 35901 ft 398 kts 252°
2026-05-07 17:23 39.87591 -15.69284 35897 ft 398 kts 251°
2026-05-07 17:24 39.86370 -15.75965 35898 ft 398 kts 251°
2026-05-07 17:24 39.85088 -15.82975 35896 ft 398 kts 251°
2026-05-07 17:25 39.83795 -15.89993 35895 ft 399 kts 251°
2026-05-07 17:25 39.82502 -15.96985 35890 ft 399 kts 251°
2026-05-07 17:26 39.81201 -16.03990 35893 ft 400 kts 251°
2026-05-07 17:26 39.79880 -16.11065 35887 ft 401 kts 251°
2026-05-07 17:27 39.78568 -16.18092 35887 ft 401 kts 251°
2026-05-07 17:27 39.77255 -16.25115 35879 ft 401 kts 251°
2026-05-07 17:28 39.75931 -16.32193 35879 ft 401 kts 251°
2026-05-07 17:28 39.74603 -16.39243 35872 ft 402 kts 252°
2026-05-07 17:29 39.73266 -16.46273 35879 ft 403 kts 252°
2026-05-07 17:29 39.71911 -16.53350 35870 ft 403 kts 252°
2026-05-07 17:30 39.70557 -16.60413 35872 ft 403 kts 252°
2026-05-07 17:30 39.69202 -16.67500 35863 ft 403 kts 252°
2026-05-07 17:31 39.67858 -16.74527 35863 ft 403 kts 252°
2026-05-07 17:31 39.66499 -16.81582 35860 ft 403 kts 252°
2026-05-07 17:32 39.65127 -16.88631 35860 ft 403 kts 252°
2026-05-07 17:32 39.63742 -16.95729 35858 ft 403 kts 252°
2026-05-07 17:33 39.62374 -17.02762 35858 ft 403 kts 252°
2026-05-07 17:33 39.60998 -17.09816 35851 ft 404 kts 253°
2026-05-07 17:34 39.59615 -17.16848 35853 ft 404 kts 253°
2026-05-07 17:34 39.58229 -17.23912 35849 ft 404 kts 253°
2026-05-07 17:35 39.56836 -17.30950 35850 ft 404 kts 252°
2026-05-07 17:35 39.55426 -17.38031 35845 ft 404 kts 252°
2026-05-07 17:36 39.54027 -17.45080 35838 ft 404 kts 253°
2026-05-07 17:36 39.52625 -17.52119 35839 ft 404 kts 253°
2026-05-07 17:37 39.51213 -17.59159 35839 ft 404 kts 253°
2026-05-07 17:37 39.49872 -17.65815 35834 ft 404 kts 253°
2026-05-07 17:38 39.48452 -17.72870 35829 ft 404 kts 253°
2026-05-07 17:38 39.47106 -17.79500 35824 ft 404 kts 253°
2026-05-07 17:39 39.45675 -17.86493 35821 ft 403 kts 253°
2026-05-07 17:39 39.44242 -17.93521 35822 ft 403 kts 253°
2026-05-07 17:40 39.42821 -18.00526 35822 ft 403 kts 253°
2026-05-07 17:40 39.41386 -18.07546 35811 ft 403 kts 253°
2026-05-07 17:41 39.39942 -18.14522 35813 ft 403 kts 253°
2026-05-07 17:41 39.38494 -18.21530 35804 ft 403 kts 253°
2026-05-07 17:42 39.37049 -18.28510 35808 ft 402 kts 253°
2026-05-07 17:42 39.35595 -18.35506 35800 ft 402 kts 253°
2026-05-07 17:43 39.34149 -18.42425 35800 ft 402 kts 253°
2026-05-07 17:43 39.32682 -18.49421 35794 ft 402 kts 254°
2026-05-07 17:44 39.31231 -18.56362 35793 ft 401 kts 254°
2026-05-07 17:44 39.29765 -18.63339 35794 ft 401 kts 253°
2026-05-07 17:45 39.28296 -18.70275 35793 ft 401 kts 253°
2026-05-07 17:45 39.26828 -18.77186 35786 ft 401 kts 253°
2026-05-07 17:46 39.25361 -18.84127 35786 ft 401 kts 253°
2026-05-07 17:46 39.23876 -18.91098 35781 ft 401 kts 253°
2026-05-07 17:47 39.22391 -18.98020 35780 ft 401 kts 253°
2026-05-07 17:47 39.20905 -19.04926 35768 ft 401 kts 253°
2026-05-07 17:48 39.19406 -19.11870 35768 ft 401 kts 253°
2026-05-07 17:48 39.17914 -19.18791 35766 ft 399 kts 254°
2026-05-07 17:49 39.16424 -19.25685 35760 ft 399 kts 254°
2026-05-07 17:49 39.14930 -19.32527 35758 ft 399 kts 253°
2026-05-07 17:50 39.13415 -19.39450 35752 ft 399 kts 254°
2026-05-07 17:50 39.11914 -19.46324 35758 ft 399 kts 254°
2026-05-07 17:51 39.10408 -19.53176 35747 ft 398 kts 254°
2026-05-07 17:51 39.08906 -19.60004 35748 ft 398 kts 254°
2026-05-07 17:52 39.07387 -19.66894 35741 ft 398 kts 254°
2026-05-07 17:52 39.05876 -19.73707 35742 ft 398 kts 254°
2026-05-07 17:53 39.04353 -19.80558 35746 ft 398 kts 254°
2026-05-07 17:53 39.02833 -19.87367 35739 ft 396 kts 254°
2026-05-07 17:54 39.01309 -19.94183 35734 ft 396 kts 254°
2026-05-07 17:54 38.99785 -20.00971 35734 ft 396 kts 255°
2026-05-07 17:55 38.98346 -20.07810 35729 ft 396 kts 256°
2026-05-07 17:55 38.96956 -20.14646 35736 ft 396 kts 256°
2026-05-07 17:56 38.95546 -20.21497 35731 ft 395 kts 256°
2026-05-07 17:56 38.94129 -20.28287 35732 ft 395 kts 255°
2026-05-07 17:57 38.92939 -20.33944 35731 ft 395 kts 255°
2026-05-07 17:57 38.91254 -20.41905 35731 ft 395 kts 255°
2026-05-07 17:58 38.89822 -20.48712 35733 ft 394 kts 255°
2026-05-07 17:58 38.88395 -20.55438 35731 ft 391 kts 255°
2026-05-07 17:59 38.86960 -20.62184 35731 ft 391 kts 255°
2026-05-07 17:59 38.85533 -20.68888 35733 ft 391 kts 255°
2026-05-07 18:00 38.84099 -20.75629 35739 ft 391 kts 255°
2026-05-07 18:00 38.82655 -20.82348 35738 ft 391 kts 255°
2026-05-07 18:01 38.81221 -20.89002 35741 ft 391 kts 255°
2026-05-07 18:01 38.79779 -20.95711 35738 ft 391 kts 255°
2026-05-07 18:02 38.77597 -21.05791 35736 ft 392 kts 255°
2026-05-07 18:03 38.76133 -21.12518 35737 ft 392 kts 255°
2026-05-07 18:03 38.74668 -21.19257 35741 ft 392 kts 255°
2026-05-07 18:04 38.73199 -21.25973 35744 ft 392 kts 255°
2026-05-07 18:04 38.71721 -21.32666 35740 ft 392 kts 255°
2026-05-07 18:05 38.70235 -21.39390 35740 ft 392 kts 255°
2026-05-07 18:05 38.68998 -21.45006 35742 ft 392 kts 255°
2026-05-07 18:06 38.67506 -21.51785 35739 ft 401 kts 256°
2026-05-07 18:06 38.65969 -21.58703 35744 ft 410 kts 255°
2026-05-07 18:07 38.64397 -21.65743 35737 ft 412 kts 255°
2026-05-07 18:07 38.62825 -21.72796 35737 ft 412 kts 255°
2026-05-07 18:08 38.61246 -21.79845 35739 ft 412 kts 255°
2026-05-07 18:08 38.59758 -21.86453 35745 ft 411 kts 256°
2026-05-07 18:09 38.58173 -21.93478 35406 ft 412 kts 256°
2026-05-07 18:09 38.57381 -21.96982 34932 ft 407 kts 256°
2026-05-07 18:09 38.56599 -22.00439 34467 ft 403 kts 256°
2026-05-07 18:09 38.55827 -22.03864 34030 ft 399 kts 256°
2026-05-07 18:10 38.55065 -22.07245 33602 ft 394 kts 256°
2026-05-07 18:10 38.54309 -22.10587 33118 ft 389 kts 256°
2026-05-07 18:10 38.53558 -22.13889 32643 ft 385 kts 255°
2026-05-07 18:10 38.52811 -22.17153 32176 ft 381 kts 255°
2026-05-07 18:11 38.52070 -22.20387 31724 ft 377 kts 255°
2026-05-07 18:11 38.51335 -22.23588 31273 ft 374 kts 255°
2026-05-07 18:11 38.50620 -22.26712 30838 ft 371 kts 255°
2026-05-07 18:11 38.49885 -22.29914 30389 ft 369 kts 255°
2026-05-07 18:12 38.49166 -22.33046 29967 ft 366 kts 255°
2026-05-07 18:12 38.48453 -22.36151 29478 ft 364 kts 254°
2026-05-07 18:12 38.47744 -22.39239 28963 ft 361 kts 254°
2026-05-07 18:12 38.47036 -22.42303 28457 ft 359 kts 254°
2026-05-07 18:13 38.46340 -22.45305 27966 ft 356 kts 254°
2026-05-07 18:13 38.45752 -22.47841 27572 ft 354 kts 255°
2026-05-07 18:13 38.45056 -22.50842 27091 ft 352 kts 255°
2026-05-07 18:13 38.44365 -22.53822 26608 ft 349 kts 255°
2026-05-07 18:14 38.43682 -22.56776 26157 ft 346 kts 255°
2026-05-07 18:14 38.43002 -22.59711 25701 ft 344 kts 255°
2026-05-07 18:14 38.42321 -22.62640 25249 ft 342 kts 255°
2026-05-07 18:14 38.41644 -22.65535 24811 ft 340 kts 255°
2026-05-07 18:15 38.40971 -22.68412 24367 ft 338 kts 255°
2026-05-07 18:15 38.40301 -22.71275 23941 ft 336 kts 255°
2026-05-07 18:15 38.39635 -22.74118 23509 ft 334 kts 254°
2026-05-07 18:15 38.38975 -22.76946 23045 ft 332 kts 255°
2026-05-07 18:16 38.38322 -22.79762 22547 ft 330 kts 255°
2026-05-07 18:16 38.37673 -22.82559 22048 ft 329 kts 255°
2026-05-07 18:16 38.37026 -22.85341 21568 ft 327 kts 255°
2026-05-07 18:16 38.36376 -22.88116 21089 ft 326 kts 255°
2026-05-07 18:17 38.35727 -22.90876 20621 ft 325 kts 255°
2026-05-07 18:17 38.35083 -22.93588 20161 ft 324 kts 255°
2026-05-07 18:17 38.34433 -22.96327 19706 ft 322 kts 255°
2026-05-07 18:17 38.33787 -22.99062 19262 ft 321 kts 255°
2026-05-07 18:18 38.33144 -23.01784 18817 ft 320 kts 255°
2026-05-07 18:18 38.32501 -23.04492 18381 ft 319 kts 255°
2026-05-07 18:18 38.31859 -23.07194 17932 ft 318 kts 255°
2026-05-07 18:18 38.31219 -23.09885 17454 ft 317 kts 255°
2026-05-07 18:19 38.30585 -23.12559 17020 ft 315 kts 256°
2026-05-07 18:19 38.29953 -23.15220 16589 ft 313 kts 256°
2026-05-07 18:19 38.29323 -23.17861 16176 ft 311 kts 255°
2026-05-07 18:19 38.28696 -23.20488 15756 ft 310 kts 256°
2026-05-07 18:20 38.28072 -23.23108 15346 ft 308 kts 256°
2026-05-07 18:20 38.27451 -23.25713 14945 ft 307 kts 256°
2026-05-07 18:20 38.26832 -23.28310 14546 ft 306 kts 256°
2026-05-07 18:20 38.26213 -23.30899 14172 ft 304 kts 256°
2026-05-07 18:21 38.25606 -23.33431 13813 ft 303 kts 256°
2026-05-07 18:21 38.24996 -23.35985 13434 ft 301 kts 256°
2026-05-07 18:21 38.24387 -23.38528 13033 ft 299 kts 256°
2026-05-07 18:21 38.23780 -23.41055 12631 ft 298 kts 256°
2026-05-07 18:22 38.23176 -23.43562 12231 ft 296 kts 257°
2026-05-07 18:22 38.22768 -23.45247 11951 ft 295 kts 257°
2026-05-07 18:22 38.21971 -23.48534 11454 ft 292 kts 257°
2026-05-07 18:22 38.21375 -23.50999 11071 ft 291 kts 256°
2026-05-07 18:23 38.20782 -23.53446 10699 ft 289 kts 257°
2026-05-07 18:23 38.20195 -23.55877 10327 ft 287 kts 257°
2026-05-07 18:23 38.19613 -23.58296 9960 ft 285 kts 257°
2026-05-07 18:23 38.19038 -23.60676 9789 ft 276 kts 257°
2026-05-07 18:24 38.18480 -23.62961 9608 ft 268 kts 257°
2026-05-07 18:24 38.17928 -23.65219 9371 ft 267 kts 257°
2026-05-07 18:24 38.17381 -23.67472 9190 ft 267 kts 257°
2026-05-07 18:24 38.16834 -23.69731 8997 ft 267 kts 257°
2026-05-07 18:25 38.16287 -23.71979 8814 ft 266 kts 257°
2026-05-07 18:25 38.15742 -23.74216 8624 ft 264 kts 257°
2026-05-07 18:25 38.15198 -23.76444 8434 ft 264 kts 258°
2026-05-07 18:25 38.14655 -23.78668 8251 ft 263 kts 258°
2026-05-07 18:26 38.14111 -23.80891 8075 ft 263 kts 258°
2026-05-07 18:26 38.13570 -23.83106 7890 ft 262 kts 258°
2026-05-07 18:26 38.13032 -23.85308 7714 ft 261 kts 257°
2026-05-07 18:26 38.12491 -23.87511 7534 ft 261 kts 258°
2026-05-07 18:27 38.11954 -23.89705 7363 ft 260 kts 258°
2026-05-07 18:27 38.11419 -23.91893 7182 ft 259 kts 258°
2026-05-07 18:27 38.10883 -23.94074 7010 ft 259 kts 257°
2026-05-07 18:27 38.10346 -23.96253 6834 ft 258 kts 258°
2026-05-07 18:28 38.09809 -23.98425 6662 ft 257 kts 257°
2026-05-07 18:28 38.09276 -24.00589 6495 ft 256 kts 258°
2026-05-07 18:28 38.08744 -24.02746 6329 ft 255 kts 258°
2026-05-07 18:28 38.08213 -24.04895 6149 ft 255 kts 258°
2026-05-07 18:29 38.07686 -24.07038 5948 ft 254 kts 259°
2026-05-07 18:29 38.07159 -24.09181 5765 ft 254 kts 258°
2026-05-07 18:29 38.06630 -24.11318 5583 ft 253 kts 258°
2026-05-07 18:29 38.06097 -24.13448 5407 ft 253 kts 258°
2026-05-07 18:30 38.05570 -24.15545 5227 ft 252 kts 258°
2026-05-07 18:30 38.05039 -24.17662 5048 ft 252 kts 258°
2026-05-07 18:30 38.04512 -24.19776 4879 ft 250 kts 258°
2026-05-07 18:30 38.03989 -24.21879 4694 ft 250 kts 258°
2026-05-07 18:31 38.03468 -24.23980 4517 ft 250 kts 258°
2026-05-07 18:31 38.02945 -24.26083 4342 ft 249 kts 258°
2026-05-07 18:31 38.02421 -24.28175 4161 ft 249 kts 258°
2026-05-07 18:31 38.01914 -24.30188 4007 ft 246 kts 259°
2026-05-07 18:32 38.01393 -24.32266 3911 ft 248 kts 258°
2026-05-07 18:32 38.00873 -24.34349 3914 ft 248 kts 258°
2026-05-07 18:32 38.00354 -24.36433 3915 ft 248 kts 258°
2026-05-07 18:32 37.99833 -24.38516 3913 ft 247 kts 258°
2026-05-07 18:33 37.99313 -24.40592 3909 ft 247 kts 258°
2026-05-07 18:33 37.98794 -24.42668 3911 ft 247 kts 258°
2026-05-07 18:33 37.98275 -24.44744 3917 ft 246 kts 259°
2026-05-07 18:33 37.97757 -24.46814 3916 ft 247 kts 259°
2026-05-07 18:34 37.97236 -24.48890 3919 ft 247 kts 258°
2026-05-07 18:34 37.96715 -24.50965 3918 ft 248 kts 258°
2026-05-07 18:34 37.96190 -24.53041 3923 ft 247 kts 258°
2026-05-07 18:34 37.95665 -24.55112 3926 ft 247 kts 258°
2026-05-07 18:35 37.95142 -24.57182 3926 ft 246 kts 259°
2026-05-07 18:35 37.94620 -24.59253 3928 ft 247 kts 259°
2026-05-07 18:35 37.94096 -24.61324 3929 ft 247 kts 258°
2026-05-07 18:35 37.93572 -24.63390 3932 ft 247 kts 258°
2026-05-07 18:36 37.93047 -24.65463 3933 ft 248 kts 258°
2026-05-07 18:36 37.92521 -24.67540 3935 ft 248 kts 258°
2026-05-07 18:36 37.91994 -24.69615 3932 ft 247 kts 258°
2026-05-07 18:36 37.91466 -24.71686 3919 ft 246 kts 259°
2026-05-07 18:37 37.90950 -24.73728 3933 ft 247 kts 258°
2026-05-07 18:37 37.90425 -24.75802 3933 ft 247 kts 259°
2026-05-07 18:37 37.89899 -24.77874 3938 ft 248 kts 258°
2026-05-07 18:37 37.89221 -24.79896 3934 ft 253 kts 248°
2026-05-07 18:38 37.88194 -24.81741 3939 ft 260 kts 236°
2026-05-07 18:38 37.87014 -24.83131 3942 ft 267 kts 224°
2026-05-07 18:38 37.85500 -24.84508 3937 ft 268 kts 223°
2026-05-07 18:38 37.83987 -24.85889 3941 ft 268 kts 223°
2026-05-07 18:39 37.82488 -24.87264 3940 ft 267 kts 224°
2026-05-07 18:39 37.80984 -24.88645 3935 ft 267 kts 224°
2026-05-07 18:39 37.79480 -24.90027 3946 ft 268 kts 224°
2026-05-07 18:39 37.78157 -24.91242 3942 ft 268 kts 224°
2026-05-07 18:40 37.76638 -24.92627 3940 ft 269 kts 223°
2026-05-07 18:40 37.75127 -24.94008 3941 ft 268 kts 224°
2026-05-07 18:40 37.73855 -24.95170 3947 ft 269 kts 224°
2026-05-07 18:40 37.72336 -24.96557 3932 ft 269 kts 223°
2026-05-07 18:41 37.70833 -24.97931 3947 ft 266 kts 223°
2026-05-07 18:41 37.69509 -24.99139 3948 ft 266 kts 223°
2026-05-07 18:41 37.68004 -25.00513 3947 ft 267 kts 223°
2026-05-07 18:41 37.66673 -25.01729 3950 ft 267 kts 223°
2026-05-07 18:42 37.65168 -25.03101 3941 ft 267 kts 224°
2026-05-07 18:42 37.63659 -25.04478 3951 ft 268 kts 224°
2026-05-07 18:42 37.62148 -25.05857 3953 ft 268 kts 223°
2026-05-07 18:42 37.60638 -25.07232 3952 ft 267 kts 223°
2026-05-07 18:43 37.59150 -25.08587 3954 ft 267 kts 223°
2026-05-07 18:43 37.57672 -25.09996 3953 ft 263 kts 231°
2026-05-07 18:43 37.56621 -25.11794 3952 ft 250 kts 252°
2026-05-07 18:43 37.56203 -25.13615 3952 ft 241 kts 270°
2026-05-07 18:44 37.56264 -25.15487 3951 ft 234 kts 286°
2026-05-07 18:44 37.56846 -25.17373 3953 ft 230 kts 303°
2026-05-07 18:44 37.57677 -25.19099 3954 ft 231 kts 303°
2026-05-07 18:44 37.58369 -25.20930 3951 ft 232 kts 294°
2026-05-07 18:45 37.58955 -25.22812 3631 ft 229 kts 295°
2026-05-07 18:45 37.59629 -25.24628 3196 ft 227 kts 302°
2026-05-07 18:45 37.60365 -25.26382 2955 ft 227 kts 297°
2026-05-07 18:45 37.61000 -25.28214 2957 ft 229 kts 295°
2026-05-07 18:46 37.61599 -25.30077 2959 ft 229 kts 295°
2026-05-07 18:46 37.62193 -25.31944 2958 ft 228 kts 295°
2026-05-07 18:46 37.62763 -25.33734 2954 ft 212 kts 295°
2026-05-07 18:46 37.63326 -25.35493 2958 ft 225 kts 295°
2026-05-07 18:47 37.63918 -25.37347 2958 ft 227 kts 295°
2026-05-07 18:47 37.64503 -25.39183 2958 ft 224 kts 296°
2026-05-07 18:47 37.65080 -25.40995 2958 ft 221 kts 296°
2026-05-07 18:47 37.65644 -25.42767 2958 ft 220 kts 296°
2026-05-07 18:48 37.66216 -25.44565 2956 ft 221 kts 296°
2026-05-07 18:48 37.66739 -25.46210 2952 ft 214 kts 296°
2026-05-07 18:48 37.67268 -25.47881 2954 ft 196 kts 296°
2026-05-07 18:48 37.67756 -25.49420 2952 ft 181 kts 296°
2026-05-07 18:49 37.68203 -25.50830 2966 ft 163 kts 296°
2026-05-07 18:49 37.68595 -25.52068 2943 ft 139 kts 298°
2026-05-07 18:49 37.68927 -25.53116 2802 ft 120 kts 298°
2026-05-07 18:49 37.69225 -25.54052 2658 ft 111 kts 299°
2026-05-07 18:50 37.69522 -25.54983 2521 ft 114 kts 298°
2026-05-07 18:50 37.69818 -25.55915 2377 ft 113 kts 298°
2026-05-07 18:50 37.70099 -25.56801 2234 ft 105 kts 298°
2026-05-07 18:50 37.70371 -25.57647 2060 ft 104 kts 297°
2026-05-07 18:51 37.70631 -25.58521 1938 ft 106 kts 297°
2026-05-07 18:51 37.70875 -25.59394 1798 ft 105 kts 297°
2026-05-07 18:51 37.71153 -25.60241 1630 ft 104 kts 301°
2026-05-07 18:51 37.71444 -25.61076 1468 ft 106 kts 299°
2026-05-07 18:52 37.71753 -25.62007 1331 ft 119 kts 296°
2026-05-07 18:52 37.72118 -25.62997 1203 ft 131 kts 298°
2026-05-07 18:52 37.72416 -25.64091 1098 ft 134 kts 290°
2026-05-07 18:52 37.72735 -25.65180 941 ft 130 kts 294°
2026-05-07 18:53 37.72955 -25.65881 782 ft 129 kts 295°
2026-05-07 18:53 37.73308 -25.66912 578 ft 127 kts 294°
2026-05-07 18:53 37.73624 -25.67956 345 ft 127 kts 293°
2026-05-07 18:53 37.73948 -25.68977 205 ft 116 kts 291°
2026-05-07 18:54 37.74176 -25.69692 217 ft 63 kts 292°
2026-05-07 18:54 37.74299 -25.70087 230 ft 39 kts 291°
2026-05-07 18:54 37.74432 -25.70309 239 ft 28 kts 317°
2026-05-07 18:54 37.74563 -25.70444 244 ft 22 kts 324°
2026-05-07 18:55 37.74635 -25.70593 250 ft 18 kts 291°
2026-05-07 18:55 37.74677 -25.70728 254 ft 14 kts 292°
2026-05-07 18:55 37.74710 -25.70832 258 ft 12 kts 291°
2026-05-07 18:55 37.74741 -25.70930 261 ft 10 kts 291°
2026-05-07 18:56 37.74759 -25.70987 263 ft 9 kts 292°
2026-05-07 18:56 37.74781 -25.71021 265 ft 3 kts 354°
2026-05-07 18:56 37.74827 -25.71002 265 ft 3 kts 21°
2026-05-07 18:56 37.74834 -25.70998 265 ft 0 kts 21°